Regional Weather Roundup
Issued by NWS

Home | Current Version | Previous Version | Text Only | Print | Product List | Glossary On
Versions: 1 2 3 4 5 6 7 8 9 10 11 12 13 14 15 16 17 18 19 20 21 22 23 24 25 26 27 28 29 30 31 32 33 34 35 36 37 38 39 40 41 42 43 44 45 46 47 48 49 50
930
ASUS44 KJAN 260510
RWRMS

MISSISSIPPI HOURLY WEATHER ROUNDUP
NATIONAL WEATHER SERVICE JACKSON MS
1100 PM CST WED FEB 25 2015

NOTE: "FAIR: INDICATES FEW OR NO CLOUDS BELOW 12,000 FEET WITH NO
SIGNIFICANT WEATHER AND/OR OBSTRUCTIONS TO VISIBILITY.

MSZ001>002-007>008-010>013-018>021-025>028-034>036-260600-
NORTHWEST MISSISSIPPI

CITY           SKY/WX    TMP DP  RH WIND       PRES   REMARKS
CLARKSDALE     CLOUDY    32  32 100 CALM      29.91F
CLEVELAND      CLOUDY    32  32 100 CALM      29.91S
GREENWOOD      CLOUDY    32  31  96 NW5       29.90R FOG     WCI  27
GREENVILLE     CLOUDY    32  31  96 CALM      29.92R
OLIVE BRANCH   CLOUDY    32  32 100 CALM      29.88S
OXFORD         CLOUDY    28  28 100 CALM      29.89S FOG
TUNICA         CLOUDY    32  32 100 CALM      29.91R FOG
$$

MSZ003>006-009-014>017-022>024-029>033-037>039-260600-
NORTHEAST MISSISSIPPI

CITY           SKY/WX    TMP DP  RH WIND       PRES   REMARKS
COLUMBUS AFB   CLOUDY    31  30  96 N6        29.84R WCI  26
CORINTH        CLOUDY    32  30  93 NW5       29.86R WCI  27
GOLDN TRIANGLE CLOUDY    32  28  86 CALM      29.84R
STARKVILLE     CLOUDY    32  32 100 CALM      29.86S
TUPELO         CLOUDY    32  29  88 NW3       29.87S
$$

MSZ040-058-260600-
CENTRAL MISSISSIPPI

CITY           SKY/WX    TMP DP  RH WIND       PRES   REMARKS
JACKSON INTL   CLOUDY    34  32  92 NW8       29.87R WCI  27
JACKSON HAWKNS CLOUDY    33  31  92 NW9       29.88R FOG     WCI  25
MERIDIAN KEY   CLOUDY    33  33 100 NW9       29.84R WCI  25
MERIDIAN NAS   CLOUDY    33  31  92 NW10      29.84R WCI  25
VICKSBURG      CLOUDY    33  31  92 NW6       29.92R WCI  28
$$

MSZ059>079-260600-
SOUTH MISSISSIPPI

CITY           SKY/WX    TMP DP  RH WIND       PRES   REMARKS
BROOKHAVEN     CLOUDY    34  34 100 NW7       29.88R WCI  28
HATTIESBURG    CLOUDY    37  35  92 NW9       29.83R WCI  30
MCCOMB         CLOUDY    35  33  92 N10       29.86R WCI  27
NATCHEZ        CLOUDY    34  30  86 NW8       29.91R WCI  27
PINE BELT      CLOUDY    36  32  87 NW8       29.83R WCI  29
$$

MSZ080>082-260600-
COASTAL MISSISSIPPI

CITY           SKY/WX    TMP DP  RH WIND       PRES   REMARKS
BILOXI         CLOUDY    40  38  95 N9        29.81R WCI  33
PASCAGOULA     CLOUDY    39  37  92 NW6       29.81R WCI  35
GULFPORT       CLOUDY    39  37  92 NW9       29.82R WCI  33
$$



USA.gov is the U.S. government's official web portal to all federal, state and local government web resources and services.